APX641 LPPR-LEGE

Flight info

Callsign APX641
Flight time N/A
Altitude 32000
Route BELDU UL155 ADORO L155 ZMR DCT OSTIX DCT ZAR DCT MECKI DCT MAMUK
Aircraft C25B/M-SDE2E3FGHRWXY/LB1

Departure

Time 2026-05-05 13:39
Airport Francisco de Sá Carneiro Airport (LPPR)

Arrival

Time N/A
Airport Girona-Costa Brava Airport (LEGE)
Time Latitude Longitude Altitude Speed Heading
2026-05-05 13:27 41.23574 -8.68168 219 ft 0 kts 169°
2026-05-05 13:37 41.23563 -8.68165 219 ft 6 kts 162°
2026-05-05 13:37 41.23538 -8.68076 223 ft 15 kts 96°
2026-05-05 13:37 41.23458 -8.68015 226 ft 14 kts 162°
2026-05-05 13:37 41.23383 -8.67950 228 ft 5 kts 127°
2026-05-05 13:38 41.23374 -8.67934 228 ft 0 kts 127°
2026-05-05 13:38 41.23357 -8.67903 229 ft 9 kts 124°
2026-05-05 13:38 41.23303 -8.67795 233 ft 18 kts 122°
2026-05-05 13:38 41.23296 -8.67729 233 ft 3 kts 357°
2026-05-05 13:39 41.23549 -8.67796 232 ft 93 kts 349°
2026-05-05 13:39 41.24491 -8.68034 597 ft 172 kts 346°
2026-05-05 13:39 41.25866 -8.68433 1558 ft 220 kts 343°
2026-05-05 13:39 41.27425 -8.68916 3149 ft 229 kts 347°
2026-05-05 13:40 41.28990 -8.69282 4639 ft 225 kts 348°
2026-05-05 13:40 41.30517 -8.69651 5822 ft 228 kts 349°
2026-05-05 13:40 41.32158 -8.70040 6569 ft 252 kts 348°
2026-05-05 13:40 41.33924 -8.70518 7432 ft 260 kts 347°
2026-05-05 13:41 41.35710 -8.70949 8508 ft 263 kts 351°
2026-05-05 13:41 41.37557 -8.70820 9544 ft 269 kts
2026-05-05 13:41 41.39379 -8.70164 10508 ft 276 kts 20°
2026-05-05 13:41 41.41052 -8.68844 11420 ft 283 kts 32°
2026-05-05 13:42 41.42461 -8.66955 12286 ft 294 kts 49°
2026-05-05 13:42 41.43513 -8.64572 13146 ft 305 kts 64°
2026-05-05 13:42 41.44043 -8.61827 13991 ft 314 kts 75°
2026-05-05 13:42 41.44251 -8.58901 14708 ft 324 kts 90°
2026-05-05 13:43 41.43964 -8.55889 15489 ft 330 kts 94°
2026-05-05 13:43 41.43689 -8.52842 16265 ft 335 kts 94°
2026-05-05 13:43 41.43362 -8.49746 17063 ft 340 kts 95°
2026-05-05 13:43 41.43035 -8.46596 17835 ft 345 kts 94°
2026-05-05 13:44 41.42713 -8.43399 18606 ft 350 kts 94°
2026-05-05 13:44 41.42389 -8.40155 19241 ft 356 kts 93°
2026-05-05 13:44 41.42053 -8.36843 19885 ft 362 kts 93°
2026-05-05 13:44 41.41703 -8.33497 20542 ft 368 kts 93°
2026-05-05 13:45 41.41358 -8.30109 21306 ft 370 kts 94°
2026-05-05 13:45 41.41008 -8.26687 21955 ft 376 kts 93°
2026-05-05 13:45 41.40653 -8.23206 22607 ft 381 kts 93°
2026-05-05 13:45 41.40285 -8.19725 23236 ft 387 kts 93°
2026-05-05 13:46 41.39920 -8.16151 23812 ft 392 kts 93°
2026-05-05 13:46 41.39539 -8.12534 24365 ft 396 kts 92°
2026-05-05 13:46 41.39165 -8.08880 24914 ft 400 kts 92°
2026-05-05 13:46 41.38775 -8.05191 25447 ft 404 kts 93°
2026-05-05 13:47 41.38383 -8.01468 25977 ft 408 kts 92°
2026-05-05 13:47 41.37991 -7.97706 26475 ft 413 kts 93°
2026-05-05 13:47 41.37581 -7.93896 27006 ft 417 kts 93°
2026-05-05 13:47 41.37181 -7.90048 27524 ft 421 kts 92°
2026-05-05 13:48 41.36770 -7.86179 28005 ft 425 kts 93°
2026-05-05 13:48 41.36487 -7.83590 28333 ft 427 kts 93°
2026-05-05 13:48 41.36081 -7.79655 28834 ft 430 kts 91°
2026-05-05 13:48 41.36048 -7.75701 29298 ft 426 kts 78°
2026-05-05 13:49 41.36389 -7.71785 29740 ft 427 kts 76°
2026-05-05 13:49 41.36743 -7.67843 30206 ft 431 kts 76°
2026-05-05 13:49 41.37107 -7.63870 30587 ft 434 kts 76°
2026-05-05 13:49 41.37454 -7.59866 31005 ft 437 kts 77°
2026-05-05 13:50 41.37807 -7.55845 31398 ft 438 kts 78°
2026-05-05 13:50 41.38161 -7.51804 31773 ft 440 kts 78°
2026-05-05 13:50 41.38517 -7.47752 32153 ft 441 kts 78°
2026-05-05 13:50 41.38871 -7.43697 32535 ft 441 kts 78°
2026-05-05 13:51 41.39219 -7.39634 32928 ft 442 kts 79°
2026-05-05 13:51 41.39573 -7.35563 33326 ft 443 kts 79°
2026-05-05 13:51 41.39919 -7.31475 33729 ft 444 kts 79°
2026-05-05 13:51 41.40273 -7.27391 34118 ft 444 kts 79°
2026-05-05 13:52 41.40619 -7.23302 34462 ft 445 kts 79°
2026-05-05 13:52 41.40960 -7.19255 34824 ft 445 kts 80°
2026-05-05 13:52 41.41305 -7.15161 35174 ft 444 kts 80°
2026-05-05 13:52 41.41653 -7.11066 35530 ft 444 kts 81°
2026-05-05 13:53 41.41992 -7.06975 35892 ft 443 kts 81°
2026-05-05 13:53 41.42332 -7.02891 36256 ft 442 kts 81°
2026-05-05 13:53 41.42669 -6.98822 36622 ft 441 kts 81°
2026-05-05 13:53 41.43007 -6.94755 36999 ft 440 kts 81°
2026-05-05 13:54 41.43337 -6.90704 37383 ft 439 kts 81°
2026-05-05 13:54 41.43665 -6.86710 37767 ft 438 kts 81°
2026-05-05 13:54 41.43996 -6.82679 38175 ft 437 kts 81°
2026-05-05 13:54 41.44318 -6.78661 38580 ft 436 kts 82°
2026-05-05 13:55 41.44643 -6.74654 38928 ft 434 kts 82°
2026-05-05 13:55 41.44964 -6.70649 39254 ft 433 kts 82°
2026-05-05 13:55 41.45285 -6.66669 39572 ft 432 kts 82°
2026-05-05 13:55 41.45602 -6.62675 39906 ft 431 kts 82°
2026-05-05 13:56 41.45919 -6.58684 40025 ft 437 kts 82°
2026-05-05 13:56 41.46241 -6.54621 40025 ft 445 kts 82°
2026-05-05 13:56 41.46894 -6.46286 40038 ft 457 kts 82°
2026-05-05 13:57 41.47552 -6.37814 40033 ft 466 kts 83°
2026-05-05 13:57 41.48216 -6.29178 40032 ft 464 kts 83°
2026-05-05 13:58 41.48859 -6.20719 40017 ft 453 kts 83°
2026-05-05 13:58 41.49486 -6.12441 40013 ft 444 kts 83°
2026-05-05 13:59 41.50388 -6.00323 39998 ft 435 kts 83°
2026-05-05 14:00 41.51267 -5.88371 39998 ft 429 kts 83°
2026-05-05 14:00 41.51840 -5.80470 40001 ft 426 kts 83°
2026-05-05 14:01 41.52404 -5.72626 40000 ft 423 kts 83°
2026-05-05 14:01 41.52958 -5.64829 40001 ft 421 kts 84°
2026-05-05 14:02 41.53019 -5.57029 40000 ft 420 kts 90°
2026-05-05 14:02 41.53025 -5.49257 40000 ft 419 kts 89°
2026-05-05 14:03 41.53017 -5.41531 39999 ft 418 kts 90°
2026-05-05 14:03 41.53005 -5.33773 40000 ft 418 kts 90°
2026-05-05 14:04 41.52991 -5.25975 40004 ft 422 kts 90°
2026-05-05 14:04 41.52969 -5.18120 40009 ft 424 kts 90°
2026-05-05 14:05 41.52942 -5.10222 40014 ft 426 kts 90°
2026-05-05 14:05 41.52909 -5.02291 40020 ft 428 kts 90°
2026-05-05 14:06 41.52871 -4.94387 40026 ft 429 kts 90°
2026-05-05 14:06 41.52826 -4.86402 40027 ft 430 kts 91°
2026-05-05 14:07 41.52776 -4.78417 40009 ft 431 kts 91°
2026-05-05 14:07 41.52721 -4.70412 40009 ft 431 kts 91°
2026-05-05 14:08 41.52661 -4.62408 40018 ft 432 kts 91°
2026-05-05 14:08 41.52595 -4.54389 40016 ft 432 kts 91°
2026-05-05 14:09 41.52523 -4.46423 40016 ft 432 kts 91°
2026-05-05 14:09 41.52445 -4.38384 40018 ft 433 kts 91°
2026-05-05 14:10 41.52361 -4.30349 40018 ft 433 kts 91°
2026-05-05 14:10 41.52272 -4.22306 40018 ft 433 kts 91°
2026-05-05 14:11 41.52178 -4.14278 40019 ft 433 kts 91°
2026-05-05 14:11 41.52079 -4.06295 40016 ft 433 kts 91°
2026-05-05 14:12 41.51974 -3.98251 40013 ft 433 kts 91°